SWA3958 KPSP-KLAS

Flight info

Callsign SWA3958
Flight time 0h 41m
Altitude 31000
Route HWRRD1 FUSBL TNP RNDRZ4
Aircraft B38M/M-SDE1FGHILORVWXY/HB1

Departure

Time 2026-05-06 03:34
Airport Palm Springs International Airport (KPSP)

Arrival

Time 2026-05-06 04:15
Airport Harry Reid International Airport (KLAS)
Time Latitude Longitude Altitude Speed Heading
2026-05-06 03:08 33.82252 -116.50620 416 ft 0 kts 324°
2026-05-06 03:22 33.82251 -116.50620 421 ft 1 kts 324°
2026-05-06 03:23 33.82239 -116.50610 412 ft 3 kts 331°
2026-05-06 03:23 33.82221 -116.50601 413 ft 3 kts 345°
2026-05-06 03:23 33.82202 -116.50597 410 ft 3 kts
2026-05-06 03:23 33.82182 -116.50601 410 ft 3 kts 19°
2026-05-06 03:24 33.82167 -116.50608 411 ft 1 kts 25°
2026-05-06 03:24 33.82165 -116.50609 412 ft 0 kts 25°
2026-05-06 03:31 33.82167 -116.50608 411 ft 2 kts 25°
2026-05-06 03:31 33.82217 -116.50564 418 ft 15 kts 49°
2026-05-06 03:31 33.82291 -116.50449 417 ft 19 kts 52°
2026-05-06 03:31 33.82259 -116.50341 410 ft 18 kts 141°
2026-05-06 03:32 33.82146 -116.50240 411 ft 23 kts 143°
2026-05-06 03:32 33.82008 -116.50118 409 ft 26 kts 144°
2026-05-06 03:32 33.81863 -116.49977 407 ft 22 kts 121°
2026-05-06 03:32 33.81854 -116.49930 406 ft 0 kts 92°
2026-05-06 03:33 33.81854 -116.49905 406 ft 9 kts 91°
2026-05-06 03:33 33.81917 -116.49831 404 ft 13 kts 321°
2026-05-06 03:33 33.82086 -116.49981 410 ft 58 kts 323°
2026-05-06 03:33 33.82561 -116.50404 417 ft 108 kts 323°
2026-05-06 03:34 33.83274 -116.51038 455 ft 144 kts 323°
2026-05-06 03:34 33.84091 -116.51745 933 ft 143 kts 325°
2026-05-06 03:34 33.84875 -116.52493 1429 ft 150 kts 317°
2026-05-06 03:34 33.85737 -116.53269 1889 ft 158 kts 322°
2026-05-06 03:35 33.86669 -116.54068 2333 ft 175 kts 321°
2026-05-06 03:35 33.87738 -116.54969 2828 ft 200 kts 322°
2026-05-06 03:35 33.88954 -116.55981 3347 ft 226 kts 323°
2026-05-06 03:35 33.90482 -116.56720 3887 ft 253 kts 351°
2026-05-06 03:36 33.92257 -116.56309 4660 ft 271 kts 27°
2026-05-06 03:36 33.93663 -116.54832 5810 ft 269 kts 44°
2026-05-06 03:36 33.95023 -116.53267 6822 ft 270 kts 44°
2026-05-06 03:36 33.96028 -116.51380 7891 ft 271 kts 69°
2026-05-06 03:37 33.96260 -116.49116 8831 ft 279 kts 92°
2026-05-06 03:37 33.95858 -116.46802 9764 ft 284 kts 100°
2026-05-06 03:37 33.95395 -116.44465 10515 ft 293 kts 100°
2026-05-06 03:37 33.94950 -116.41989 10941 ft 311 kts 92°
2026-05-06 03:38 33.95082 -116.39338 11389 ft 326 kts 82°
2026-05-06 03:38 33.95305 -116.36549 11883 ft 342 kts 82°
2026-05-06 03:38 33.95532 -116.33659 12550 ft 350 kts 82°
2026-05-06 03:38 33.95768 -116.30736 13442 ft 354 kts 82°
2026-05-06 03:39 33.96011 -116.27752 14121 ft 362 kts 81°
2026-05-06 03:39 33.96256 -116.24743 14277 ft 363 kts 82°
2026-05-06 03:39 33.96499 -116.21747 14443 ft 365 kts 82°
2026-05-06 03:39 33.96749 -116.18662 14618 ft 366 kts 82°
2026-05-06 03:40 33.97008 -116.15656 14769 ft 366 kts 81°
2026-05-06 03:40 33.97350 -116.12608 14910 ft 367 kts 79°
2026-05-06 03:40 33.97687 -116.09557 14972 ft 368 kts 80°
2026-05-06 03:40 33.98018 -116.06504 14974 ft 368 kts 79°
2026-05-06 03:41 33.98347 -116.03450 14972 ft 367 kts 80°
2026-05-06 03:41 33.98675 -116.00372 15283 ft 370 kts 81°
2026-05-06 03:41 33.99002 -115.97291 16161 ft 372 kts 80°
2026-05-06 03:41 33.99337 -115.94194 16896 ft 378 kts 81°
2026-05-06 03:42 33.99678 -115.91029 17653 ft 383 kts 81°
2026-05-06 03:42 34.00033 -115.88945 18091 ft 386 kts 70°
2026-05-06 03:42 34.01249 -115.86081 18760 ft 386 kts 52°
2026-05-06 03:42 34.03151 -115.83802 19456 ft 386 kts 36°
2026-05-06 03:43 34.05345 -115.81900 20120 ft 390 kts 34°
2026-05-06 03:43 34.07573 -115.80024 20799 ft 392 kts 34°
2026-05-06 03:43 34.09834 -115.78148 21472 ft 396 kts 34°
2026-05-06 03:43 34.12022 -115.76118 22086 ft 399 kts 43°
2026-05-06 03:44 34.14048 -115.73822 22753 ft 402 kts 42°
2026-05-06 03:44 34.16103 -115.71515 23365 ft 406 kts 42°
2026-05-06 03:44 34.18175 -115.69187 23991 ft 404 kts 43°
2026-05-06 03:44 34.20197 -115.66914 24995 ft 394 kts 42°
2026-05-06 03:45 34.22213 -115.64646 25524 ft 396 kts 43°
2026-05-06 03:45 34.24233 -115.62372 25989 ft 401 kts 43°
2026-05-06 03:45 34.26303 -115.60041 25573 ft 412 kts 43°
2026-05-06 03:45 34.28464 -115.57566 25950 ft 406 kts 44°
2026-05-06 03:46 34.30422 -115.55344 28143 ft 378 kts 43°
2026-05-06 03:46 34.32515 -115.53320 27960 ft 395 kts 33°
2026-05-06 03:46 34.34954 -115.51685 27753 ft 409 kts 29°
2026-05-06 03:46 34.37576 -115.50194 27550 ft 424 kts 20°
2026-05-06 03:47 34.40459 -115.49317 27311 ft 431 kts 14°
2026-05-06 03:47 34.43287 -115.48211 26738 ft 423 kts 24°
2026-05-06 03:47 34.45882 -115.46853 27185 ft 392 kts 25°
2026-05-06 03:47 34.48358 -115.45597 27717 ft 380 kts 24°
2026-05-06 03:48 34.50880 -115.44515 28045 ft 388 kts 20°
2026-05-06 03:48 34.53464 -115.43501 28410 ft 393 kts 21°
2026-05-06 03:48 34.56057 -115.42442 28837 ft 395 kts 21°
2026-05-06 03:48 34.58621 -115.41375 28872 ft 396 kts 22°
2026-05-06 03:49 34.63852 -115.39162 27601 ft 406 kts 22°
2026-05-06 03:49 34.66530 -115.38024 26576 ft 410 kts 21°
2026-05-06 03:49 34.69240 -115.36869 25598 ft 415 kts 21°
2026-05-06 03:50 34.71978 -115.35702 24633 ft 420 kts 21°
2026-05-06 03:50 34.74798 -115.34770 23931 ft 421 kts
2026-05-06 03:50 34.77709 -115.34789 23506 ft 418 kts 354°
2026-05-06 03:50 34.80491 -115.35764 22980 ft 416 kts 339°
2026-05-06 03:51 34.82954 -115.37591 22461 ft 420 kts 323°
2026-05-06 03:51 34.85091 -115.40014 21999 ft 419 kts 321°
2026-05-06 03:51 34.87353 -115.42237 21689 ft 417 kts 324°
2026-05-06 03:51 34.89604 -115.44463 21514 ft 416 kts 323°
2026-05-06 03:52 34.91833 -115.46698 21304 ft 415 kts 323°
2026-05-06 03:52 34.94051 -115.48942 21102 ft 413 kts 323°
2026-05-06 03:52 34.96253 -115.51180 20913 ft 412 kts 323°
2026-05-06 03:52 34.98446 -115.53413 20663 ft 411 kts 323°
2026-05-06 03:53 35.00636 -115.55646 20404 ft 409 kts 323°
2026-05-06 03:53 35.02799 -115.57852 20253 ft 406 kts 323°
2026-05-06 03:53 35.04945 -115.60042 20036 ft 398 kts 323°
2026-05-06 03:53 35.07070 -115.62211 19854 ft 397 kts 323°
2026-05-06 03:54 35.09195 -115.64385 19430 ft 397 kts 323°
2026-05-06 03:54 35.11307 -115.66545 20084 ft 393 kts 323°
2026-05-06 03:54 35.13413 -115.68697 19959 ft 400 kts 324°
2026-05-06 03:54 35.15609 -115.70935 18545 ft 420 kts 323°
2026-05-06 03:55 35.17847 -115.73242 17937 ft 416 kts 323°
2026-05-06 03:55 35.20002 -115.75454 17928 ft 395 kts 323°
2026-05-06 03:55 35.22225 -115.77289 17557 ft 381 kts 336°
2026-05-06 03:55 35.24715 -115.78032 17291 ft 362 kts
2026-05-06 03:56 35.27145 -115.77705 17363 ft 343 kts
2026-05-06 03:56 35.29543 -115.77426 16534 ft 355 kts
2026-05-06 03:56 35.32009 -115.77152 16258 ft 342 kts
2026-05-06 03:56 35.34147 -115.76921 17429 ft 302 kts
2026-05-06 03:57 35.36370 -115.76662 16105 ft 333 kts
2026-05-06 03:57 35.38722 -115.76370 15467 ft 340 kts
2026-05-06 03:57 35.41092 -115.76101 15192 ft 348 kts
2026-05-06 03:57 35.43541 -115.75836 14913 ft 356 kts
2026-05-06 03:58 35.46014 -115.75569 14686 ft 360 kts
2026-05-06 03:58 35.48512 -115.75296 14468 ft 360 kts
2026-05-06 03:58 35.51009 -115.75014 14260 ft 360 kts
2026-05-06 03:58 35.53495 -115.74749 13952 ft 358 kts
2026-05-06 03:59 35.55975 -115.74480 13847 ft 356 kts
2026-05-06 03:59 35.58399 -115.74015 13801 ft 351 kts 17°
2026-05-06 03:59 35.60526 -115.72625 13842 ft 348 kts 39°
2026-05-06 03:59 35.62261 -115.70544 13874 ft 350 kts 47°
2026-05-06 04:00 35.63832 -115.68251 13877 ft 350 kts 50°
2026-05-06 04:00 35.65374 -115.65920 13872 ft 351 kts 50°
2026-05-06 04:00 35.66925 -115.63613 13754 ft 349 kts 49°
2026-05-06 04:00 35.68503 -115.61369 13695 ft 347 kts 47°
2026-05-06 04:01 35.70109 -115.59152 13566 ft 347 kts 46°
2026-05-06 04:01 35.71749 -115.56987 13483 ft 345 kts 45°
2026-05-06 04:01 35.73477 -115.54936 13476 ft 345 kts 37°
2026-05-06 04:01 35.75492 -115.53336 13452 ft 345 kts 30°
2026-05-06 04:02 35.77615 -115.51942 13363 ft 345 kts 27°
2026-05-06 04:02 35.79741 -115.50581 13170 ft 344 kts 28°
2026-05-06 04:02 35.81860 -115.49211 12983 ft 344 kts 29°
2026-05-06 04:02 35.83956 -115.47781 13026 ft 344 kts 29°
2026-05-06 04:03 35.85998 -115.46375 12811 ft 336 kts 28°
2026-05-06 04:03 35.88034 -115.45016 12502 ft 329 kts 29°
2026-05-06 04:03 35.89988 -115.43629 12236 ft 322 kts 30°
2026-05-06 04:03 35.91889 -115.42243 11988 ft 314 kts 31°
2026-05-06 04:04 35.93751 -115.40857 11602 ft 311 kts 31°
2026-05-06 04:04 35.95614 -115.39532 11297 ft 306 kts 29°
2026-05-06 04:04 35.97442 -115.38264 11113 ft 298 kts 28°
2026-05-06 04:04 35.99223 -115.37049 11050 ft 285 kts 30°
2026-05-06 04:05 36.00642 -115.35462 11074 ft 271 kts 56°
2026-05-06 04:05 36.01277 -115.33370 11203 ft 254 kts 80°
2026-05-06 04:05 36.01293 -115.31285 11366 ft 235 kts 88°
2026-05-06 04:05 36.01246 -115.29288 11095 ft 233 kts 89°
2026-05-06 04:06 36.01179 -115.27281 10792 ft 233 kts 89°
2026-05-06 04:06 36.01103 -115.25337 10537 ft 230 kts 90°
2026-05-06 04:06 36.01037 -115.23332 10118 ft 236 kts 89°
2026-05-06 04:06 36.00989 -115.21269 9642 ft 244 kts 89°
2026-05-06 04:07 36.00930 -115.19145 9232 ft 247 kts 90°
2026-05-06 04:07 36.00826 -115.17055 9079 ft 241 kts 91°
2026-05-06 04:07 36.00699 -115.15033 9032 ft 239 kts 92°
2026-05-06 04:07 36.00573 -115.12973 8994 ft 240 kts 91°
2026-05-06 04:08 36.00448 -115.10918 8970 ft 241 kts 91°
2026-05-06 04:08 36.00325 -115.08860 8762 ft 241 kts 91°
2026-05-06 04:08 36.00217 -115.06792 8498 ft 241 kts 92°
2026-05-06 04:08 36.00124 -115.04737 8340 ft 239 kts 91°
2026-05-06 04:09 36.00022 -115.02684 8152 ft 239 kts 90°
2026-05-06 04:09 35.99933 -115.00628 7934 ft 242 kts 90°
2026-05-06 04:09 35.99909 -114.98523 7489 ft 246 kts 90°
2026-05-06 04:09 35.99908 -114.96425 7218 ft 243 kts 90°
2026-05-06 04:10 35.99903 -114.94348 6896 ft 242 kts 89°
2026-05-06 04:10 36.00233 -114.92334 6487 ft 238 kts 60°
2026-05-06 04:10 36.01391 -114.90989 6168 ft 226 kts 28°
2026-05-06 04:10 36.02823 -114.90174 5722 ft 228 kts 17°
2026-05-06 04:11 36.04355 -114.89943 5405 ft 214 kts 350°
2026-05-06 04:11 36.05666 -114.90575 5238 ft 198 kts 318°
2026-05-06 04:11 36.06499 -114.91869 5085 ft 192 kts 296°
2026-05-06 04:11 36.06998 -114.93370 4828 ft 187 kts 284°
2026-05-06 04:12 36.07276 -114.94934 4665 ft 186 kts 275°
2026-05-06 04:12 36.07386 -114.96525 4479 ft 185 kts 269°
2026-05-06 04:12 36.07342 -114.98112 4245 ft 185 kts 262°
2026-05-06 04:12 36.07351 -114.99697 3985 ft 186 kts 271°
2026-05-06 04:13 36.07377 -115.01267 3681 ft 175 kts 268°
2026-05-06 04:13 36.07361 -115.02651 3554 ft 149 kts 268°
2026-05-06 04:13 36.07357 -115.03908 3341 ft 142 kts 269°
2026-05-06 04:13 36.07378 -115.05095 3244 ft 138 kts 269°
2026-05-06 04:14 36.07376 -115.06309 3095 ft 143 kts 266°
2026-05-06 04:14 36.07374 -115.07568 2912 ft 150 kts 265°
2026-05-06 04:14 36.07365 -115.08880 2740 ft 156 kts 267°
2026-05-06 04:14 36.07365 -115.10231 2498 ft 158 kts 265°
2026-05-06 04:15 36.07368 -115.11572 2318 ft 155 kts 266°
2026-05-06 04:15 36.07366 -115.12887 2139 ft 149 kts 268°
2026-05-06 04:15 36.07367 -115.14042 2128 ft 117 kts 268°
2026-05-06 04:15 36.07368 -115.14723 2127 ft 43 kts 280°
2026-05-06 04:16 36.07464 -115.15034 2124 ft 27 kts 302°
2026-05-06 04:16 36.07488 -115.15081 2123 ft 0 kts 305°
2026-05-06 04:16 36.07491 -115.15086 2124 ft 4 kts 310°
2026-05-06 04:16 36.07505 -115.15099 2124 ft 3 kts 321°
2026-05-06 04:17 36.07525 -115.15120 2129 ft 6 kts 321°
2026-05-06 04:17 36.07627 -115.15188 2128 ft 23 kts 338°
2026-05-06 04:17 36.07786 -115.15282 2130 ft 26 kts 334°
2026-05-06 04:17 36.07881 -115.15221 2129 ft 19 kts 92°
2026-05-06 04:18 36.07873 -115.15040 2128 ft 23 kts 94°
2026-05-06 04:18 36.07860 -115.14837 2128 ft 25 kts 93°
2026-05-06 04:18 36.07846 -115.14645 2120 ft 19 kts 94°
2026-05-06 04:18 36.07862 -115.14490 2123 ft 15 kts 31°
2026-05-06 04:19 36.07972 -115.14484 2117 ft 18 kts
2026-05-06 04:19 36.08084 -115.14496 2115 ft 1 kts 345°
2026-05-06 04:19 36.08107 -115.14506 2115 ft 7 kts 339°
2026-05-06 04:19 36.08112 -115.14508 2115 ft 0 kts 338°
2026-05-06 04:20 36.08119 -115.14512 2115 ft 3 kts 336°
2026-05-06 04:20 36.08139 -115.14528 2114 ft 2 kts 297°
2026-05-06 04:20 36.08129 -115.14585 2115 ft 7 kts 252°
2026-05-06 04:20 36.08123 -115.14610 2116 ft 5 kts 255°
2026-05-06 04:21 36.08122 -115.14614 2116 ft 0 kts 255°